Location: Aufkirchen
(47.9603°N, 11.3653°E)
Time: 17:09:35
(UTC+01:00)

N. Korean satellite - Visible Passes

Search period start: 27 October 2020 00:00
Search period end: 06 November 2020 00:00
Orbit: 452 x 505 km, 97.2° (Epoch: 26 October)

Date Brightness Start Highest point End Pass type
(mag) Time Alt. Az. Time Alt. Az. Time Alt. Az.
27 Oct 9.8 04:53:13 10° NE 04:55:16 15° E 04:57:19 10° SE visible
28 Oct 6.3 05:59:19 10° N 06:02:45 82° WNW 06:06:08 10° SSW visible
28 Oct 10.4 18:13:48 10° WSW 18:14:39 11° W 18:15:29 10° WNW visible
29 Oct 7.7 05:33:16 10° NNE 05:36:34 45° E 05:39:51 10° S visible
29 Oct 9.7 17:45:34 10° SW 17:48:17 21° W 17:51:00 10° NW visible
30 Oct 9.2 05:07:34 10° NE 05:10:19 22° E 05:13:02 10° SSE visible
31 Oct 10.1 04:42:49 10° ENE 04:43:57 11° E 04:45:05 10° ESE visible
31 Oct 6.6 06:14:17 10° N 06:17:37 51° WNW 06:20:57 10° SSW visible
01 Nov 6.7 05:48:04 10° NNE 05:51:30 72° ESE 05:54:54 10° S visible
01 Nov 10.0 18:01:23 10° SW 18:03:17 14° W 18:05:13 10° WNW visible
02 Nov 8.4 05:22:08 10° NNE 05:25:16 33° E 05:28:24 10° SSE visible
02 Nov 9.1 17:33:56 10° SSW 17:36:58 27° W 17:39:58 10° NW visible
03 Nov 9.6 04:56:39 10° NE 04:58:57 17° E 05:01:14 10° SE visible
03 Nov 7.1 06:29:18 10° N 06:32:26 34° WNW 06:35:33 10° SW visible
04 Nov 6.3 06:02:54 10° N 06:06:20 73° WNW 06:09:45 10° SSW visible
05 Nov 7.4 05:36:48 10° NNE 05:40:09 51° E 05:43:31 10° S visible
05 Nov 9.7 17:49:25 10° SW 17:51:53 18° W 17:54:22 10° NW visible
